Terminal Aerodrome Forecast
Issued by NWS

Home | Current Version | Previous Version | Text Only | Print | Product List | Glossary On
Versions: 1 2 3 4 5 6 7 8 9 10 11 12 13 14 15 16 17 18 19 20 21 22 23 24 25 26 27 28 29 30
000
FTUS45 KSLC 292334
TAFENV
TAF
KENV 292334Z 3000/3024 12005KT P6SM VCSH BKN060 BKN120
     FM300600 32006KT P6SM BKN040 OVC060
     FM301300 02004KT P6SM VCSH OVC025
     FM301900 03005KT P6SM SCT025 OVC040
      AMD LTD TO CLD VIS AND WIND=

USA.gov is the U.S. government's official web portal to all federal, state and local government web resources and services.